Content
SEND FEEDBACK

Daily
Averages
Monthly
Summary
Mexico

PUEBLA - JARDINES DE SAN MANUEL, PUEBLA


Home > North America > Mexico > Puebla
Elevation: 2122 meters     Latitude: 19 00N     Longitude: 098 11W

WEATHER
 
SELECT A DAY
Number of Records: 120,769;   Date Range: 1/1/95 - 7/11/14
 
SHARE

PRINT THIS DATA

[ ← Previous Day ]
WEATHER ALMANAC - 5 OCTOBER, 2013
[ Next Day → ]
[ °F ]   °C
Weather ElementAverageHighLow
Temperature17.5 °C23.3 °C (3:40 pm)9 °C (7:40 am)
Dewpoint11.1 °C15 °C (6:43 pm)8 °C (5:59 am)
Humidity66 %94 % (1:42 pm)32 % (12:50 pm)
Barometer1022 hPa1028.1 hPa (9:43 am)1005.1 hPa (6:40 pm)
Wind Speed8.9 km/h24.1 km/h (3:44 pm)
Weather ElementAverage
Visibility9.8 km
Wind DirectionSSE (171.9 °)

Weather ElementTotal
Precipitation---
Heating Degree Days2.2 (Base 18.3)
Growing Degree Days6.2 (Base 10)
Averaged from 23 records on 5 October, 2013
WEATHER CONDITIONS BREAKOUT
WIND DIRECTION BREAKOUT
WEATHER BY HOUR - 5 OCTOBER, 2013
[ °F ]   °C
Local TimeTemperatureDewpointHumidityBarometerVisibilityWind DirectionWind SpeedGust SpeedPrecipitationEventsConditions
5:59 AM10 °C8 °C87 %1026.4 hPa8 kmNW (320°)9.3 km/hScattered Clouds
6:45 AM10 °C8 °C87 %1026.8 hPa8 kmNW (310°)7.4 km/hScattered Clouds
6:58 AM12.8 °C10.6 °C84 %1010.2 hPa4.8 kmCalmPartly Cloudy
7:40 AM9 °C8 °C93 %1027.1 hPa8 kmNNW (330°)5.6 km/hPartly Cloudy
8:41 AM12 °C9 °C82 %1027.8 hPa8 kmNorth (350°)5.6 km/hClear
9:43 AM15 °C10 °C72 %1028.1 hPa9.7 kmNorth (10°)5.6 km/hScattered Clouds
9:50 AM17.8 °C12.2 °C60 %1012.9 hPa4.8 kmNorth3.5 km/hHaze
10:45 AM19 °C12 °C64 %1028.1 hPa8 kmNNE (30°)7.4 km/hScattered Clouds
11:46 AM21 °C10 °C49 %1028.1 hPa11.3 kmSouth (180°)3.7 km/hPartly Cloudy
12:41 PM23 °C11 °C47 %1027.1 hPa12.9 kmSouth (170°)5.6 km/hScattered Clouds
12:50 PM22.8 °C9.4 °C32 %1011.9 hPa4.8 kmSE (140°)3.5 km/hHaze
1:42 PM13 °C12 °C94 %1026.1 hPa12.9 kmSSE (160°)22.2 km/hScattered Clouds
2:46 PM23 °C12 °C50 %1025.1 hPa12.9 kmSSE (160°)13 km/hScattered Clouds
3:40 PM23.3 °C12.2 °C40 %1007.1 hPa9.7 kmSSE (160°)7.2 km/hHaze
3:44 PM23 °C13 °C53 %1024.4 hPa12.9 kmSSW (200°)24.1 km/hScattered Clouds
4:45 PM20 °C13 °C64 %1024 hPa14.5 kmSSW (200°)22.2 km/hScattered Clouds
5:43 PM19 °C14 °C73 %1024 hPa14.5 kmSouth (170°)13 km/hScattered Clouds
6:40 PM22.2 °C11.1 °C38 %1005.1 hPa9.7 kmSSE (160°)3.5 km/hHaze
6:43 PM19 °C15 °C78 %1025.1 hPa12.9 kmSSE (150°)5.6 km/hMostly Cloudy
7:43 PM18 °C15 °C83 %1026.1 hPa11.3 kmNE (50°)5.6 km/hMostly Cloudy
8:41 PM16 °C10 °C68 %1027.4 hPa11.3 kmNorth (10°)14.8 km/hMostly Cloudy
9:43 PM15 °C11 °C77 %1027.8 hPa11.3 kmNorth (350°)13 km/hMostly Cloudy
9:50 PM18.9 °C9.4 °C43 %1006.4 hPa4.8 kmCalmPartly Cloudy
Hourly data recorded from MMPB, located 0 kilometers away from Puebla - Jardines de San Manuel, Puebla







STORIES FROM OUR PARTNERS